Weather History for KICT - November, 2014

Change the Weather History Date:

Sunday, November 9, 2014

  Actual Average Record
Temperature  
Mean Temperature 53 °F 49 °F  
Max Temperature 69 °F 60 °F 82 °F (2006)
Min Temperature 36 °F 38 °F 21 °F (1950)
Degree Days  
Heating Degree Days 12 16  
Month to date heating degree days 123 131  
Since 1 July heating degree days 286 417  
Cooling Degree Days 0 0  
Month to date cooling degree days 0 0  
Year to date cooling degree days 1849 1684  
Growing Degree Days 4 (Base 50)    
Moisture  
Dew Point 38 °F    
Average Humidity 59    
Maximum Humidity 80    
Minimum Humidity 37    
Precipitation  
Precipitation 0.00 in 0.05 in 1.13 in (1919)
Month to date precipitation 0.13 0.51  
Year to date precipitation 23.99 30.52  
Snow  
Snow 0.00 in 0.00 in 8.70 in (1888)
Month to date snowfall 0.0 0.1  
Since 1 July snowfall 0.0 0.2  
Since 1 September snowfall 0.0 0.2  
Snow Depth 0.00 in    
Sea Level Pressure  
Sea Level Pressure 29.81 in    
Wind  
Wind Speed 12 mph (South)    
Max Wind Speed 21 mph    
Max Gust Speed 28 mph    
Visibility 10 miles    
Events      
T = Trace of Precipitation, MM = Missing Value Source: NWS Daily Summary

Daily Weather History Graph

Daily Weather History Graph

Search for Another Location

Airport or City:

Trip Planner

Search our weather history database for the weather conditions in past years. The results will help you decide how hot, cold, wet, or windy it might be!

Date:

Astronomy

Nov. 09, 2014 Rise Set
Actual Time 7:03 AM CST 5:23 PM CST
Civil Twilight 6:35 AM CST 5:50 PM CST
Nautical Twilight 6:04 AM CST 6:22 PM CST
Astronomical Twilight 5:33 AM CST 6:53 PM CST
Moon 7:58 PM CST (11/9) 9:35 AM CST (11/9)
Length of Visible Light 11h 15m
Length of Day
10h 20m
Waning Gibbous, 91% of the Moon is Illuminated
Nov 9
Waning Gibbous
Nov 14
Last Quarter
Nov 22
New
Nov 29
First Quarter
Dec 6
Full

Hourly Weather History & Observations

Time (CST) Temp. Windchill Dew Point Humidity Pressure Visibility Wind Dir Wind Speed Gust Speed Precip Events Conditions
12:53 AM 37.9 °F 31.5 °F 28.0 °F 68% 30.07 in 10.0 mi South 9.2 mph - N/A   Partly Cloudy
1:53 AM 39.0 °F 32.8 °F 28.0 °F 65% 30.05 in 10.0 mi South 9.2 mph - N/A   Clear
2:53 AM 37.9 °F 31.5 °F 28.9 °F 70% 30.02 in 10.0 mi South 9.2 mph - N/A   Clear
3:53 AM 37.0 °F 29.3 °F 28.9 °F 73% 30.00 in 10.0 mi South 11.5 mph - N/A   Clear
4:53 AM 39.9 °F 33.9 °F 30.9 °F 70% 29.96 in 10.0 mi South 9.2 mph - N/A   Partly Cloudy
5:53 AM 39.9 °F 33.9 °F 30.9 °F 70% 29.95 in 10.0 mi SSE 9.2 mph - N/A   Partly Cloudy
6:53 AM 39.9 °F 34.5 °F 30.9 °F 70% 29.95 in 10.0 mi South 8.1 mph - N/A   Scattered Clouds
7:53 AM 43.0 °F 36.4 °F 33.1 °F 68% 29.94 in 10.0 mi South 12.7 mph - N/A   Mostly Cloudy
8:53 AM 51.1 °F - 34.0 °F 52% 29.91 in 10.0 mi South 19.6 mph 27.6 mph N/A   Mostly Cloudy
9:53 AM 55.0 °F - 36.0 °F 49% 29.90 in 10.0 mi SSW 18.4 mph - N/A   Mostly Cloudy
10:53 AM 59.0 °F - 37.9 °F 46% 29.87 in 10.0 mi SSW 16.1 mph - N/A   Mostly Cloudy
11:53 AM 63.0 °F - 39.9 °F 43% 29.83 in 10.0 mi SW 17.3 mph - N/A   Mostly Cloudy
12:53 PM 66.0 °F - 39.9 °F 38% 29.80 in 10.0 mi SW 13.8 mph 19.6 mph N/A   Mostly Cloudy
1:53 PM 66.9 °F - 41.0 °F 39% 29.75 in 10.0 mi SSW 16.1 mph - N/A   Mostly Cloudy
2:53 PM 69.1 °F - 42.1 °F 38% 29.73 in 10.0 mi SSW 11.5 mph - N/A   Mostly Cloudy
3:53 PM 68.0 °F - 43.0 °F 40% 29.72 in 10.0 mi South 17.3 mph - N/A   Scattered Clouds
4:53 PM 62.1 °F - 44.1 °F 52% 29.70 in 10.0 mi South 10.4 mph - N/A   Mostly Cloudy
5:53 PM 57.0 °F - 43.0 °F 59% 29.70 in 10.0 mi South 6.9 mph - N/A   Mostly Cloudy
6:53 PM 53.1 °F - 43.0 °F 69% 29.70 in 10.0 mi South 5.8 mph - N/A   Mostly Cloudy
7:53 PM 51.1 °F - 43.0 °F 74% 29.68 in 10.0 mi South 9.2 mph - N/A   Mostly Cloudy
8:53 PM 52.0 °F - 44.1 °F 74% 29.66 in 10.0 mi South 6.9 mph - N/A   Mostly Cloudy
9:53 PM 48.9 °F - 43.0 °F 80% 29.64 in 10.0 mi South 6.9 mph - N/A   Mostly Cloudy
10:53 PM 52.0 °F - 44.1 °F 74% 29.61 in 10.0 mi SSE 10.4 mph - N/A   Mostly Cloudy
11:53 PM 51.1 °F - 43.0 °F 74% 29.58 in 10.0 mi SSE 10.4 mph - N/A   Scattered Clouds